OK1FET-5 Weather Reports


time (UTC)temp
C
wind
direction
speed
KPH
gust
KPH
rain 1hr
cm
rain 24hr
cm
rain mn
cm
humidity
%
barometer
mb
20260502150131 25 145 9.7 12.9 0.00 0.00 0.00 23 1020.6
20260502130312 26 93 8.0 12.9 0.00 0.00 0.00 23 1022.2
20260502123338 26 108 6.4 12.9 0.00 0.00 0.00 25 1022.5
20260502122842 26 146 4.8 11.3 0.00 0.00 0.00 26 1022.7
20260502122346 26 135 4.8 11.3 0.00 0.00 0.00 23 1022.7
20260502121850 25 132 8.0 12.9 0.00 0.00 0.00 24 1022.8
20260502121354 25 142 11.3 14.5 0.00 0.00 0.00 22 1022.8
20260502120858 26 192 8.0 14.5 0.00 0.00 0.00 25 1023.0
20260502120403 25 180 11.3 16.1 0.00 0.00 0.00 27 1023.0
20260502115907 25 158 11.3 14.5 0.00 0.00 0.00 26 1023.1
20260502115411 26 200 6.4 14.5 0.00 0.00 0.00 28 1023.2
20260502114420 24 142 11.3 16.1 0.00 0.00 0.00 26 1023.4
20260502113924 24 127 9.7 16.1 0.00 0.00 0.00 27 1023.3
20260502113429 25 104 9.7 12.9 0.00 0.00 0.00 26 1023.4
20260502112933 24 133 11.3 19.3 0.00 0.00 0.00 25 1023.5
20260502112437 25 142 9.7 19.3 0.00 0.00 0.00 28 1023.6
20260502111446 25 141 6.4 12.9 0.00 0.00 0.00 27 1023.6
20260502110456 24 147 12.9 16.1 0.00 0.00 0.00 27 1023.9
20260502105959 25 152 9.7 14.5 0.00 0.00 0.00 26 1023.9
20260502105503 25 153 9.7 12.9 0.00 0.00 0.00 31 1024.0
20260502105008 26 73 4.8 11.3 0.00 0.00 0.00 30 1024.0
20260502104512 24 111 9.7 12.9 0.00 0.00 0.00 28 1024.0
20260502104016 25 139 11.3 14.5 0.00 0.00 0.00 27 1024.1
20260502103521 26 129 4.8 12.9 0.00 0.00 0.00 29 1024.2
20260502103025 25 73 4.8 8.0 0.00 0.00 0.00 32 1024.2
20260502102529 24 149 6.4 11.3 0.00 0.00 0.00 32 1024.4
20260502102034 23 159 12.9 14.5 0.00 0.00 0.00 29 1024.4
20260502101538 23 145 11.3 16.1 0.00 0.00 0.00 28 1024.5
20260502101043 23 177 11.3 17.7 0.00 0.00 0.00 31 1024.6
20260502100547 23 142 11.3 16.1 0.00 0.00 0.00 31 1024.7
20260502091136 22 174 6.4 8.0 0.00 0.00 0.00 38 1025.2
20260502090145 22 160 4.8 11.3 0.00 0.00 0.00 39 1025.3
20260502071332 16 141 6.4 8.0 0.00 0.00 0.00 42 1026.0
20260502070837 16 119 6.4 8.0 0.00 0.00 0.00 43 1026.0
20260502070342 16 111 6.4 8.0 0.00 0.00 0.00 41 1026.0
20260502065847 16 115 6.4 8.0 0.00 0.00 0.00 41 1026.0
20260502065353 16 100 6.4 8.0 0.00 0.00 0.00 41 1026.0
20260502064858 17 90 4.8 6.4 0.00 0.00 0.00 40 1026.1
20260502064404 16 93 4.8 6.4 0.00 0.00 0.00 40 1026.1
20260502063908 16 128 4.8 6.4 0.00 0.00 0.00 41 1026.1
20260502063414 16 147 6.4 8.0 0.00 0.00 0.00 42 1026.1
20260502062919 15 135 4.8 6.4 0.00 0.00 0.00 42 1026.1
20260502062424 16 138 4.8 6.4 0.00 0.00 0.00 41 1026.1
20260502061930 16 144 4.8 4.8 0.00 0.00 0.00 42 1026.2
20260502061435 16 167 3.2 4.8 0.00 0.00 0.00 41 1026.1
20260502060940 16 153 3.2 6.4 0.00 0.00 0.00 41 1026.1
20260502060445 16 174 3.2 4.8 0.00 0.00 0.00 40 1026.2
20260502055950 16 167 1.6 3.2 0.00 0.00 0.00 39 1026.2
20260502055455 16 152 4.8 6.4 0.00 0.00 0.00 39 1026.1
20260502055000 17 294 1.6 3.2 0.00 0.00 0.00 36 1026.1
20260502054505 17 315 1.6 3.2 0.00 0.00 0.00 36 1026.1
20260502054011 17 318 1.6 3.2 0.00 0.00 0.00 37 1026.1
20260502053516 16 191 1.6 3.2 0.00 0.00 0.00 39 1026.1
20260502053021 16 196 1.6 4.8 0.00 0.00 0.00 39 1026.1
20260502052526 16 288 1.6 4.8 0.00 0.00 0.00 37 1026.1
20260502052032 15 202 1.6 3.2 0.00 0.00 0.00 38 1026.1
20260502051537 15 249 1.6 4.8 0.00 0.00 0.00 37 1026.0
20260502050548 15 180 1.6 3.2 0.00 0.00 0.00 38 1026.0
20260502045558 14 177 1.6 3.2 0.00 0.00 0.00 37 1025.9
20260502045104 14 180 0.0 1.6 0.00 0.00 0.00 37 1025.9
20260502044609 13 180 0.0 1.6 0.00 0.00 0.00 38 1026.0
20260502044115 12 180 0.0 1.6 0.00 0.00 0.00 39 1025.9
20260502043621 11 170 1.6 3.2 0.00 0.00 0.00 40 1025.9
20260502043126 11 179 1.6 3.2 0.00 0.00 0.00 40 1025.8
20260502042633 11 180 0.0 1.6 0.00 0.00 0.00 39 1025.8
20260502042138 11 180 0.0 0.0 0.00 0.00 0.00 39 1025.8
20260502041644 11 180 0.0 0.0 0.00 0.00 0.00 39 1025.8
20260502041150 10 217 0.0 1.6 0.00 0.00 0.00 40 1025.8
20260502040655 10 311 1.6 3.2 0.00 0.00 0.00 41 1025.8
20260502040201 9 135 0.0 1.6 0.00 0.00 0.00 42 1025.9
20260502035707 8 135 1.6 1.6 0.00 0.00 0.00 43 1025.9
20260502035213 8 100 1.6 1.6 0.00 0.00 0.00 44 1025.9
20260502034719 8 90 1.6 3.2 0.00 0.00 0.00 45 1025.9
20260502034225 7 84 1.6 3.2 0.00 0.00 0.00 46 1025.9
20260502033731 7 90 1.6 4.8 0.00 0.00 0.00 46 1025.9
20260502033237 7 90 1.6 3.2 0.00 0.00 0.00 46 1025.9
20260502032743 7 77 1.6 3.2 0.00 0.00 0.00 46 1025.9
20260502032249 7 332 1.6 3.2 0.00 0.00 0.00 46 1026.0
20260502031755 7 324 1.6 4.8 0.00 0.00 0.00 46 1026.0
20260502031301 7 353 1.6 3.2 0.00 0.00 0.00 45 1026.0
20260502030807 7 18 3.2 4.8 0.00 0.00 0.00 45 1026.0
20260502030313 7 357 1.6 3.2 0.00 0.00 0.00 46 1026.0
20260502025819 7 353 4.8 8.0 0.00 0.00 0.00 46 1025.9
20260502025325 8 342 8.0 9.7 0.00 0.00 0.00 45 1025.9
20260502024831 8 350 9.7 11.3 0.00 0.00 0.00 44 1026.0
20260502024337 8 322 11.3 12.9 0.00 0.00 0.00 43 1025.9
20260502023843 8 330 11.3 12.9 0.00 0.00 0.00 43 1025.9
20260502023349 8 321 9.7 11.3 0.00 0.00 0.00 43 1025.9
20260502022854 8 327 8.0 8.0 0.00 0.00 0.00 44 1026.0
20260502022400 8 327 6.4 8.0 0.00 0.00 0.00 43 1026.0
20260502021906 8 318 4.8 6.4 0.00 0.00 0.00 43 1026.1
20260502021412 8 315 3.2 4.8 0.00 0.00 0.00 44 1026.1
20260502020918 8 249 1.6 3.2 0.00 0.00 0.00 42 1026.1
20260502020424 9 239 0.0 0.0 0.00 0.00 0.00 41 1026.1
20260502015929 10 325 1.6 4.8 0.00 0.00 0.00 41 1026.1
20260502015435 10 16 1.6 3.2 0.00 0.00 0.00 40 1026.1
20260502014941 11 16 3.2 4.8 0.00 0.00 0.00 40 1026.1
20260502014447 11 33 4.8 6.4 0.00 0.00 0.00 40 1026.1
20260502013953 10 33 4.8 6.4 0.00 0.00 0.00 40 1026.1
20260502013459 10 33 4.8 4.8 0.00 0.00 0.00 40 1026.1
20260502013004 10 42 4.8 4.8 0.00 0.00 0.00 41 1026.2
20260502012016 9 18 3.2 4.8 0.00 0.00 0.00 42 1026.3
20260502011522 8 338 6.4 8.0 0.00 0.00 0.00 41 1026.3
20260502011028 9 324 8.0 9.7 0.00 0.00 0.00 42 1026.2
20260502010534 9 334 1.6 4.8 0.00 0.00 0.00 40 1026.4
20260502010039 10 344 3.2 4.8 0.00 0.00 0.00 40 1026.4
20260502005545 10 328 1.6 3.2 0.00 0.00 0.00 40 1026.4
20260502005051 10 45 1.6 3.2 0.00 0.00 0.00 40 1026.4
20260502004103 10 322 1.6 4.8 0.00 0.00 0.00 39 1026.3
20260502003609 10 337 1.6 3.2 0.00 0.00 0.00 39 1026.4
20260502003115 10 335 3.2 4.8 0.00 0.00 0.00 38 1026.4
20260502002620 11 258 1.6 3.2 0.00 0.00 0.00 38 1026.4
20260502002126 11 239 0.0 0.0 0.00 0.00 0.00 38 1026.4
20260502001632 11 0 0.0 0.0 0.00 0.00 0.00 38 1026.4
20260502001138 11 347 0.0 1.6 0.00 0.00 0.00 38 1026.4
20260502000643 11 318 3.2 4.8 0.00 0.00 0.00 38 1026.4
20260502000149 11 331 4.8 4.8 0.00 0.00 0.00 37 1026.4
20260501235655 11 331 4.8 6.4 0.00 0.00 0.00 38 1026.4
20260501235201 11 348 1.6 3.2 0.00 0.00 0.00 39 1026.5
20260501234706 11 318 4.8 6.4 0.00 0.00 0.00 39 1026.6
20260501234213 11 315 4.8 4.8 0.00 0.00 0.00 40 1026.5
20260501233718 11 312 1.6 4.8 0.00 0.00 0.00 39 1026.5
20260501233224 10 309 0.0 0.0 0.00 0.00 0.00 38 1026.6
20260501232729 11 305 1.6 3.2 0.00 0.00 0.00 38 1026.6
20260501231741 11 77 1.6 3.2 0.00 0.00 0.00 37 1026.7
20260501231247 11 28 3.2 6.4 0.00 0.00 0.00 37 1026.7
20260501230752 11 324 8.0 9.7 0.00 0.00 0.00 37 1026.5
20260501230258 12 318 8.0 9.7 0.00 0.00 0.00 39 1026.5
20260501225804 12 319 6.4 8.0 0.00 0.00 0.00 37 1026.5
20260501225309 12 341 8.0 8.0 0.00 0.00 0.00 38 1026.5
20260501224815 11 327 8.0 9.7 0.00 0.00 0.00 37 1026.5
20260501224321 11 322 9.7 11.3 0.00 0.00 0.00 37 1026.5
20260501223826 11 327 9.7 11.3 0.00 0.00 0.00 36 1026.5
20260501223332 12 339 9.7 11.3 0.00 0.00 0.00 36 1026.5
20260501222838 12 325 8.0 11.3 0.00 0.00 0.00 36 1026.5
20260501222343 12 321 6.4 8.0 0.00 0.00 0.00 36 1026.6
20260501221849 12 338 4.8 4.8 0.00 0.00 0.00 36 1026.5
20260501221354 12 336 6.4 9.7 0.00 0.00 0.00 36 1026.6
20260501220406 12 327 9.7 11.3 0.00 0.00 0.00 35 1026.6
20260501215912 12 322 9.7 11.3 0.00 0.00 0.00 35 1026.6
20260501215417 12 331 9.7 9.7 0.00 0.00 0.00 35 1026.6
20260501214923 12 334 9.7 11.3 0.00 0.00 0.00 35 1026.6
20260501214429 12 336 9.7 12.9 0.00 0.00 0.00 35 1026.5
20260501213934 12 342 9.7 11.3 0.00 0.00 0.00 35 1026.5
20260501213440 12 331 9.7 11.3 0.00 0.00 0.00 35 1026.5
20260501212946 12 347 8.0 11.3 0.00 0.00 0.00 36 1026.5
20260501212451 12 344 8.0 11.3 0.00 0.00 0.00 35 1026.5
20260501211957 12 324 9.7 12.9 0.00 0.00 0.00 35 1026.5
20260501211503 12 324 8.0 11.3 0.00 0.00 0.00 38 1026.6
20260501211008 12 318 6.4 9.7 0.00 0.00 0.00 40 1026.6
20260501210514 13 318 8.0 9.7 0.00 0.00 0.00 37 1026.6
20260501210019 14 321 6.4 11.3 0.00 0.00 0.00 34 1026.5
20260501205525 15 330 3.2 4.8 0.00 0.00 0.00 31 1026.5
20260501205030 15 336 3.2 3.2 0.00 0.00 0.00 31 1026.5
20260501204536 15 341 3.2 4.8 0.00 0.00 0.00 31 1026.5
20260501203547 15 345 3.2 4.8 0.00 0.00 0.00 31 1026.5
20260501203052 15 330 3.2 4.8 0.00 0.00 0.00 31 1026.5
20260501202558 15 342 3.2 4.8 0.00 0.00 0.00 31 1026.5
20260501202104 15 339 3.2 4.8 0.00 0.00 0.00 31 1026.5
20260501201609 15 355 3.2 4.8 0.00 0.00 0.00 31 1026.5
20260501201114 15 342 3.2 4.8 0.00 0.00 0.00 31 1026.5
20260501200619 15 347 3.2 4.8 0.00 0.00 0.00 31 1026.5
20260501200125 15 330 3.2 4.8 0.00 0.00 0.00 31 1026.5
20260501195630 15 336 3.2 4.8 0.00 0.00 0.00 31 1026.5
20260501195136 15 348 3.2 4.8 0.00 0.00 0.00 31 1026.5
20260501194641 15 331 3.2 4.8 0.00 0.00 0.00 31 1026.5
20260501194147 15 339 3.2 4.8 0.00 0.00 0.00 31 1026.5
20260501193652 15 336 3.2 4.8 0.00 0.00 0.00 31 1026.5
20260501193158 15 335 3.2 4.8 0.00 0.00 0.00 31 1026.5
20260501192703 15 308 1.6 3.2 0.00 0.00 0.00 31 1026.5
20260501192209 15 323 1.6 3.2 0.00 0.00 0.00 30 1026.5
20260501191714 15 342 3.2 4.8 0.00 0.00 0.00 30 1026.6
20260501191220 15 329 3.2 4.8 0.00 0.00 0.00 30 1026.6
20260501190725 15 337 3.2 4.8 0.00 0.00 0.00 30 1026.6
20260501190230 15 331 1.6 3.2 0.00 0.00 0.00 30 1026.6
20260501185736 15 336 3.2 3.2 0.00 0.00 0.00 30 1026.5
20260501185241 16 344 3.2 3.2 0.00 0.00 0.00 30 1026.5
20260501184747 16 330 1.6 3.2 0.00 0.00 0.00 30 1026.4
20260501183757 16 345 3.2 4.8 0.00 0.00 0.00 30 1026.4
20260501183303 16 329 3.2 4.8 0.00 0.00 0.00 30 1026.4
20260501182314 16 321 1.6 3.2 0.00 0.00 0.00 29 1026.3
20260501181819 16 337 1.6 4.8 0.00 0.00 0.00 29 1026.3
20260501181325 16 19 1.6 3.2 0.00 0.00 0.00 29 1026.2
20260501175840 17 5 1.6 3.2 0.00 0.00 0.00 29 1026.2
20260501175345 17 270 1.6 3.2 0.00 0.00 0.00 29 1026.2
20260501174851 17 273 1.6 1.6 0.00 0.00 0.00 29 1026.2
20260501174356 17 315 1.6 3.2 0.00 0.00 0.00 28 1026.1
20260501173902 18 276 1.6 4.8 0.00 0.00 0.00 28 1026.1
20260501173406 18 334 1.6 3.2 0.00 0.00 0.00 28 1026.1
20260501172912 18 103 1.6 4.8 0.00 0.00 0.00 28 1026.1
20260501172416 19 107 3.2 4.8 0.00 0.00 0.00 28 1026.0
20260501171922 19 70 3.2 4.8 0.00 0.00 0.00 28 1026.0
20260501171426 20 83 4.8 8.0 0.00 0.00 0.00 28 1026.0
20260501170932 20 140 1.6 6.4 0.00 0.00 0.00 28 1026.0
20260501170436 20 109 3.2 6.4 0.00 0.00 0.00 28 1026.1
20260501165941 21 67 1.6 4.8 0.00 0.00 0.00 29 1026.1
20260501165446 21 87 4.8 6.4 0.00 0.00 0.00 29 1026.2
20260501164951 21 70 4.8 8.0 0.00 0.00 0.00 30 1026.2
20260501164455 21 110 4.8 6.4 0.00 0.00 0.00 30 1026.2
20260501164000 22 134 3.2 6.4 0.00 0.00 0.00 31 1026.2
20260501163009 22 233 1.6 3.2 0.00 0.00 0.00 31 1026.3
20260501162514 22 58 3.2 6.4 0.00 0.00 0.00 31 1026.4
20260501162018 23 166 1.6 3.2 0.00 0.00 0.00 31 1026.3
20260501161027 23 18 1.6 4.8 0.00 0.00 0.00 31 1026.3
20260501160532 23 124 3.2 9.7 0.00 0.00 0.00 31 1026.3
20260501160036 23 90 4.8 6.4 0.00 0.00 0.00 31 1026.2
20260501155045 23 62 3.2 8.0 0.00 0.00 0.00 31 1026.3
20260501154549 23 63 3.2 6.4 0.00 0.00 0.00 31 1026.3
20260501154054 23 107 4.8 9.7 0.00 0.00 0.00 31 1026.4
20260501153558 23 134 4.8 8.0 0.00 0.00 0.00 32 1026.4
20260501153102 24 86 4.8 6.4 0.00 0.00 0.00 32 1026.4
20260501152607 25 150 4.8 8.0 0.00 0.00 0.00 31 1026.5
20260501152112 26 275 3.2 4.8 0.00 0.00 0.00 32 1026.6
20260501151615 25 226 1.6 4.8 0.00 0.00 0.00 32 1026.5
20260501151119 25 181 1.6 3.2 0.00 0.00 0.00 32 1026.6
20260501150623 25 84 3.2 6.4 0.00 0.00 0.00 32 1026.6